Voltar ao catálogo

EXPLORER 33

AIMP-D

LostCiênciaLPO
NORAD 2258·PAYLOAD·🇺🇸 United States

Lançado Jul 1, 1966 de Cape Canaveral Space Force Station

Loading…

TLE

ObsoletoSource: Space-Track

Época: May 12, 1971, 12:00 UTC

1  2258U 66058A   71132.50000000 +.00000700 +00000-0 +10000-3 0  9992
2  2258 024.1400 173.5399 2833030 119.2000 021.7899 00.03712071001423

Acompanhe EXPLORER 33 em tempo real com AllMySat

Download on the App Store